Theta_e
291 286 282 284 285 285 283 281 280 282 285 284 284 285 287 290 290 290 291 292 293 294 297 299 300 302 302 305 310 315 321 325 327 327 323 322 321 324 325 326 323 319 317 316
285 282 286 287 286 285 284 281 281 284 286 285 284 283 287 289 290 291 291 292 293 294 296 297 298 299 300 301 303 309 314 320 325 325 326 325 325 323 324 324 323 321 318 316
280 283 287 284 284 282 282 280 280 280 284 286 284 281 284 288 290 292 292 293 294 294 295 296 298 299 299 299 300 303 309 314 320 324 324 324 324 323 321 320 321 323 320 317
281 285 284 283 281 283 278 285 284 282 280 276 283 274 282 285 286 289 291 293 293 294 294 293 293 295 296 298 299 299 302 309 316 322 321 321 320 318 320 319 322 322 322 320
279 282 282 281 281 284 280 284 282 282 280 279 279 276 280 284 283 286 290 291 290 290 291 292 293 294 296 297 299 300 299 302 312 320 322 319 319 321 322 321 319 319 318 319
282 286 284 283 285 285 285 283 282 281 279 273 278 277 278 281 283 285 288 287 289 290 291 292 293 294 295 297 298 299 299 299 304 314 317 321 320 319 319 321 321 318 318 317
278 279 284 284 281 284 283 279 272 271 271 270 278 276 279 284 285 285 286 287 287 289 289 290 291 292 293 294 296 297 298 298 301 303 313 319 323 323 321 321 322 320 317 315
272 270 279 284 281 276 278 278 273 266 268 271 277 273 278 283 284 285 285 285 286 287 288 289 290 291 292 294 295 296 297 297 300 302 303 313 320 322 323 323 323 322 319 318
272 272 280 282 282 280 277 274 280 273 275 271 274 278 283 283 281 282 282 284 284 286 287 288 290 291 292 293 294 295 296 297 298 302 304 306 314 319 321 323 324 323 322 318
276 270 278 279 280 281 279 280 272 274 265 265 271 273 276 279 279 280 282 283 284 286 287 288 289 290 292 293 294 296 296 296 297 299 304 306 310 317 319 320 320 323 322 318
276 275 274 277 276 275 276 274 275 275 272 266 265 271 281 280 281 281 282 283 284 285 286 287 288 290 291 293 294 295 296 296 296 297 299 305 310 313 317 314 318 321 322 320
280 276 271 274 279 279 278 276 276 270 268 272 270 270 282 282 282 283 283 284 284 286 286 287 288 289 291 292 292 294 295 294 295 295 297 301 308 313 314 316 315 319 320 319
279 275 269 270 274 276 274 277 277 276 274 269 268 270 282 282 281 283 283 284 285 285 286 287 287 288 290 291 291 293 293 293 293 294 295 297 300 308 313 315 315 316 318 318
283 276 272 268 271 273 271 274 276 275 270 270 271 273 277 279 280 282 283 284 284 284 286 286 286 287 290 290 291 292 292 292 292 292 293 294 295 297 299 312 315 315 316 317
280 273 275 275 276 276 275 274 275 273 273 270 272 273 277 279 280 282 283 284 284 283 285 286 285 286 289 289 290 291 291 291 291 291 291 293 294 295 298 305 313 314 315 316
280 272 274 272 275 275 273 275 275 275 275 274 274 274 281 283 283 282 283 283 283 283 285 285 286 285 288 289 289 290 290 291 290 290 290 292 293 293 296 300 308 312 314 315
275 273 271 267 273 272 269 273 275 275 277 276 272 277 282 281 281 282 283 283 283 283 284 285 285 285 288 289 289 290 290 291 290 289 290 290 291 292 293 295 300 306 311 313
273 272 272 268 269 262 273 279 278 276 277 278 278 279 281 281 283 284 285 284 284 284 284 285 286 286 288 289 289 291 291 290 289 289 289 290 290 291 292 292 295 298 305 311
278 274 270 267 267 270 273 276 275 274 274 279 278 279 281 283 283 282 285 285 285 285 286 287 287 288 289 288 289 290 290 289 289 288 288 289 290 289 290 291 292 295 298 304
276 277 272 270 265 262 272 278 281 279 269 280 280 280 280 281 275 279 285 286 285 285 286 286 287 287 288 288 289 289 289 288 288 288 288 289 290 289 289 290 291 292 294 298
269 270 268 269 267 270 277 279 280 268 271 281 281 281 280 278 281 284 286 285 285 286 286 287 287 286 288 289 288 287 288 287 288 290 289 289 290 289 289 289 290 290 291 294
269 267 267 269 266 264 280 278 273 278 282 282 282 282 282 282 283 284 284 284 284 284 285 286 286 287 288 289 288 287 286 289 289 289 288 288 288 288 287 288 288 288 289 291
268 273 270 271 271 279 281 280 282 283 281 281 282 283 283 282 282 283 283 284 284 284 285 287 286 286 287 288 288 286 287 289 287 286 285 285 286 286 286 287 287 288 289 290
275 277 273 273 276 278 280 282 283 283 282 283 283 283 283 281 282 282 283 283 283 284 284 286 285 284 285 287 286 286 287 287 285 284 285 285 285 286 286 287 287 287 288 289
276 275 273 273 276 278 280 282 282 283 283 283 284 283 282 281 281 282 281 281 282 283 284 284 284 284 284 286 286 287 286 286 284 284 285 285 286 286 286 287 287 287 289 289
277 275 273 272 278 278 279 282 283 281 282 283 282 281 280 279 279 279 278 279 279 279 280 280 281 282 283 284 284 285 286 285 284 284 285 285 285 286 286 286 287 289 288 288
Wind_Speed
2 5 7 6 9 12 10 9 11 4 4 9 14 18 16 13 15 16 17 18 18 16 12 12 12 11 12 12 15 17 19 20 15 12 10 10 11 11 11 13 18 16 14 14
5 9 4 4 6 9 11 14 17 13 10 13 17 25 22 21 23 22 20 20 21 20 18 16 14 13 12 13 14 16 18 20 18 13 12 12 13 11 11 10 14 17 17 16
9 4 5 8 6 9 11 13 12 13 11 13 15 24 21 17 19 19 20 19 19 18 16 14 12 11 9 11 12 14 16 18 19 19 12 10 9 9 8 10 12 16 19 16
4 3 7 10 12 10 15 5 10 12 9 8 2 10 10 6 10 11 12 10 10 10 7 6 4 1 3 5 6 10 14 17 17 20 16 17 12 11 9 10 12 12 18 20
6 7 8 8 7 8 8 1 5 9 12 12 16 10 3 2 9 8 8 2 2 5 5 5 5 5 5 6 6 5 9 14 17 18 21 15 16 11 9 11 14 14 14 17
9 3 5 6 7 8 3 7 9 6 7 10 16 13 11 10 10 6 4 5 6 5 6 6 6 6 7 6 7 6 6 8 13 18 21 22 19 17 13 14 13 12 12 13
8 10 2 4 6 3 8 6 5 6 7 10 3 10 16 6 3 2 5 5 6 7 8 8 9 9 9 10 9 8 8 8 7 15 19 20 22 22 22 20 16 16 13 13
7 7 5 7 4 3 3 5 6 7 8 6 3 7 7 6 8 10 9 6 7 9 9 10 10 10 10 10 10 11 11 10 8 9 15 17 20 15 16 19 16 14 14 15
4 6 2 6 2 3 3 6 4 7 10 9 9 9 10 8 9 8 8 8 8 10 11 12 11 10 11 10 10 10 11 11 10 9 10 15 17 20 18 20 19 15 16 14
3 7 7 3 2 8 8 3 5 4 6 11 10 12 10 5 7 5 4 8 7 8 10 12 11 11 9 10 10 9 9 10 10 10 9 11 16 18 18 17 22 20 17 16
2 5 6 2 8 12 6 7 6 4 6 8 12 9 3 3 4 3 5 6 8 11 12 11 12 10 10 9 9 9 10 11 11 10 10 9 13 16 17 16 19 19 18 18
5 4 8 15 11 6 10 14 13 9 10 8 12 14 15 13 14 11 12 7 11 13 11 12 12 10 9 9 10 9 9 10 11 12 11 9 9 14 16 17 17 18 19 17
4 5 7 6 5 4 8 14 14 8 6 15 16 16 12 15 10 12 14 18 17 19 16 13 12 9 9 9 9 9 10 10 10 11 11 11 9 9 14 17 17 15 15 16
13 8 13 15 12 2 6 9 13 14 9 16 17 25 23 23 24 21 16 15 17 17 21 12 11 10 9 8 9 9 9 9 10 10 10 11 10 10 11 14 11 12 13 14
6 11 14 16 17 22 22 19 16 14 21 19 22 24 24 24 25 24 20 20 18 18 21 16 11 11 10 10 9 9 9 9 9 10 10 11 12 11 11 11 10 10 13 14
4 10 9 15 19 20 21 20 22 27 28 25 27 28 28 26 25 26 24 22 19 19 19 19 12 12 11 10 10 10 9 9 9 9 10 11 11 11 12 10 10 8 11 14
12 9 8 18 19 17 15 21 26 27 26 25 23 27 27 25 25 24 24 19 18 19 18 18 15 13 11 10 9 12 10 9 9 9 9 10 11 11 11 11 10 10 9 10
18 16 11 15 7 19 16 19 23 25 25 23 24 25 27 27 24 20 20 20 20 20 17 19 16 14 13 10 10 11 10 10 8 10 10 9 10 11 10 10 10 10 10 9
18 14 9 11 14 17 19 22 13 14 20 19 23 24 25 25 21 20 23 22 20 19 18 16 15 14 13 10 11 11 11 11 8 9 11 10 9 11 11 11 10 10 10 11
6 14 12 9 14 20 20 20 14 10 14 25 23 21 21 21 13 15 21 15 14 17 15 14 15 13 13 11 10 11 13 12 10 11 11 11 9 10 11 12 11 9 10 11
2 5 13 14 17 15 15 19 4 8 15 17 14 11 16 16 13 16 16 15 12 13 13 12 12 13 14 10 8 12 13 14 11 9 9 10 10 10 11 11 10 10 10 9
6 6 6 7 13 18 11 6 10 15 15 16 18 20 18 16 16 16 18 18 16 13 14 12 11 11 13 10 9 13 15 12 10 9 10 10 9 8 8 9 9 9 9 10
9 12 9 9 12 12 15 18 19 17 16 21 19 19 18 18 19 19 15 13 13 13 11 10 11 12 13 12 11 14 18 9 8 9 9 10 10 9 9 10 9 9 8 9
12 13 14 12 22 23 22 20 18 16 18 18 17 18 16 16 15 15 12 11 11 12 13 12 11 12 15 14 12 15 17 10 7 11 11 9 10 11 10 8 8 8 8 8
11 8 10 18 23 22 20 21 20 17 14 16 15 14 12 10 13 10 12 11 12 13 12 13 14 14 17 17 17 16 10 9 11 11 11 11 9 11 11 11 10 10 11 11
10 18 13 18 22 17 22 20 18 14 16 16 13 12 8 8 12 11 12 10 12 14 14 14 16 16 19 17 19 18 10 10 13 14 10 10 9 10 10 10 11 17 22 20
Wind_Direction
317 244 234 262 245 276 276 267 258 246 285 315 264 271 269 270 275 273 275 277 273 266 258 261 259 254 247 240 238 230 228 221 213 206 191 196 201 205 204 202 202 190 193 192
264 252 269 343 254 249 252 261 264 283 275 260 275 274 274 268 264 260 262 264 268 268 263 251 247 252 252 254 246 242 233 228 219 213 204 207 208 209 206 198 199 204 197 192
275 294 289 311 273 235 239 250 259 264 283 279 273 274 261 252 249 253 254 256 263 266 271 274 270 274 278 262 250 243 240 238 235 217 217 210 213 207 200 194 198 207 206 196
300 329 266 272 255 264 265 275 255 256 262 261 206 282 286 257 266 247 253 250 261 272 275 290 278 312 345 317 284 257 246 236 231 227 217 211 209 208 198 200 205 205 204 205
357 314 317 293 272 231 286 49 260 267 258 262 240 263 235 240 256 254 258 192 50 62 66 50 12 0 354 347 338 300 264 245 231 222 221 215 215 215 196 197 200 199 202 206
277 270 271 262 292 255 262 247 247 277 260 239 249 227 274 263 271 284 336 79 76 54 44 34 9 355 358 0 357 345 332 264 243 230 225 222 217 215 214 202 203 198 196 202
299 280 235 238 268 198 227 239 254 228 205 247 284 213 257 273 231 19 109 84 51 42 29 17 8 360 354 353 351 345 338 319 268 242 231 225 222 220 216 209 210 201 200 198
277 277 205 177 257 318 262 260 264 263 247 274 133 235 239 90 88 90 94 69 42 33 18 8 359 351 349 344 344 341 338 327 314 266 244 236 229 225 221 216 212 213 202 201
272 248 268 226 200 254 133 229 357 295 266 266 254 241 254 145 104 103 81 61 37 17 4 354 348 346 344 345 341 339 335 328 327 307 270 242 232 229 226 220 218 213 210 201
312 279 262 272 218 232 245 5 243 221 263 262 247 252 256 129 169 134 58 33 22 11 354 342 339 336 335 334 338 335 338 335 328 326 304 259 238 231 230 228 224 218 210 203
227 243 243 232 226 257 201 228 209 280 266 270 272 263 81 55 143 296 317 315 329 333 333 331 323 323 321 323 332 331 337 339 344 338 326 297 254 237 230 231 231 224 215 202
231 254 265 264 268 260 255 249 229 241 238 249 275 265 286 281 274 276 285 277 299 315 307 307 306 306 314 318 329 326 331 334 340 339 332 327 286 250 238 229 233 230 219 204
168 236 269 254 218 210 243 236 241 248 269 263 263 266 264 268 263 259 279 298 307 309 306 303 293 288 301 306 317 316 325 328 333 337 339 337 334 288 259 237 231 231 229 202
264 227 241 259 263 5 233 242 236 230 253 253 254 266 268 274 277 277 274 277 286 290 296 289 275 277 290 297 303 309 315 330 330 333 337 335 336 319 298 280 235 220 224 205
247 260 251 261 250 259 263 264 255 242 244 256 266 268 269 269 270 279 290 284 282 278 285 282 257 265 265 283 295 299 310 324 335 332 329 327 329 326 313 285 268 225 216 214
247 279 301 285 270 266 261 256 253 253 257 258 253 260 261 266 273 276 277 273 273 268 270 276 269 251 254 257 286 294 302 314 327 328 321 322 324 332 331 319 292 255 230 222
263 262 258 266 274 288 264 239 246 252 254 246 251 250 264 269 262 261 270 283 268 260 262 265 266 245 246 247 265 279 297 302 310 318 319 319 321 327 332 329 313 296 255 227
251 252 257 268 265 256 259 264 253 252 258 254 251 259 258 258 266 277 277 270 261 258 260 260 260 249 233 234 252 265 280 292 301 310 313 315 318 321 325 325 319 304 292 245
226 239 251 249 246 268 277 265 247 249 268 271 260 258 259 268 274 276 265 259 265 261 251 258 259 253 241 222 242 256 262 276 290 297 306 311 314 313 315 317 315 308 294 283
221 228 238 250 261 263 263 275 281 304 269 263 269 271 272 272 268 263 275 276 256 255 254 255 252 247 240 230 237 248 248 260 277 291 295 300 301 298 301 304 304 300 288 276
176 228 236 247 260 262 255 268 307 245 275 299 294 286 281 269 264 267 271 272 256 253 258 254 257 247 243 241 230 252 256 255 260 275 277 278 287 290 289 290 290 290 288 276
226 208 217 244 255 262 236 245 221 269 288 291 289 293 282 271 274 270 265 270 274 268 266 257 254 251 249 246 241 257 260 259 246 255 269 270 274 283 282 272 276 277 272 268
238 209 245 217 253 266 283 278 277 283 286 286 282 277 277 281 279 279 266 266 271 273 272 265 250 251 258 259 241 253 258 261 234 238 249 264 269 270 276 274 267 270 259 259
245 236 244 264 255 263 270 268 272 272 282 284 280 280 279 270 273 276 273 270 276 279 278 278 269 257 261 263 252 240 260 256 221 240 247 253 259 272 267 266 263 258 251 253
251 198 230 254 266 274 261 268 268 276 275 275 268 274 267 269 274 283 283 290 285 279 275 275 270 266 260 262 265 261 255 233 232 242 250 252 253 261 269 260 258 253 249 241
225 246 235 253 262 269 279 275 275 281 281 274 259 266 265 272 279 287 283 290 284 279 278 276 272 271 269 268 266 266 254 230 241 250 252 251 254 259 256 261 271 244 241 245